Weather History for Kansas City International, MO

Change the Weather History Date:

Thursday, December 13, 2012

  Actual Average Record
Temperature  
Mean Temperature 45 °F 32 °F  
Max Temperature 55 °F 40 °F 73 °F (1948)
Min Temperature 34 °F 23 °F -6 °F (1917)
Degree Days  
Heating Degree Days 20 33  
Month to date heating degree days 277 407  
Since 1 July heating degree days 1224 1409  
Cooling Degree Days 0 0  
Month to date cooling degree days 0 0  
Year to date cooling degree days 1839 1360  
Moisture  
Dew Point 18 °F    
Average Humidity 40    
Maximum Humidity 56    
Minimum Humidity 24    
Precipitation  
Precipitation 0.00 in 0.06 in 2.59 in (1992)
Month to date precipitation 0.02 0.75  
Year to date precipitation 20.96 38.08  
Snow  
Snow 0.00 in 0.10 in 7.00 in (2000)
Month to date snowfall 0.0 1.8  
Since 1 July snowfall T 3.2  
Snow Depth 0.00 in    
Sea Level Pressure  
Sea Level Pressure 30.11 in    
Wind  
Wind Speed 14 mph (SSW)    
Max Wind Speed 26 mph    
Max Gust Speed 33 mph    
Visibility 10 miles    
Events      
T = Trace of Precipitation, MM = Missing Value Source: NWS Daily Summary

Daily Weather History Graph

Daily Weather History Graph

Search for Another Location

Airport:

Trip Planner

Search our weather history database for the weather conditions in past years. The results will help you decide how hot, cold, wet, or windy it might be!

Date:

Astronomy

Dec. 13, 2012 Rise Set
Actual Time 7:30 AM CST 4:56 PM CST
Civil Twilight 7:00 AM CST 5:26 PM CST
Nautical Twilight 6:26 AM CST 6:00 PM CST
Astronomical Twilight 5:54 AM CST 6:32 PM CST
Moon 7:39 AM CST (12/13) 5:39 PM CST (12/13)
Length of Visible Light 10h 26m
Length of Day
9h 25m
New Moon, 0% of the Moon is Illuminated
Dec 13
New Moon
Dec 19
First Quarter
Dec 28
Full
Jan 4
Last Quarter
Jan 11
New

Hourly Weather History & Observations

Time (CST) Temp. Windchill Dew Point Humidity Pressure Visibility Wind Dir Wind Speed Gust Speed Precip Events Conditions
12:53 AM 41.0 °F 31.6 °F 10.9 °F 29% 30.12 in 10.0 mi South 20.7 mph 28.8 mph N/A   Clear
1:53 AM 41.0 °F 31.1 °F 12.0 °F 31% 30.12 in 10.0 mi South 23.0 mph 32.2 mph N/A   Clear
2:53 AM 39.9 °F 30.5 °F 12.0 °F 32% 30.12 in 10.0 mi South 19.6 mph 28.8 mph N/A   Clear
3:53 AM 39.9 °F 30.5 °F 12.9 °F 33% 30.11 in 10.0 mi South 19.6 mph - N/A   Clear
4:53 AM 37.9 °F 29.2 °F 14.0 °F 38% 30.10 in 6.0 mi South 15.0 mph - N/A   Haze
5:53 AM 39.0 °F 30.6 °F 15.1 °F 38% 30.11 in 10.0 mi SSW 15.0 mph - N/A   Partly Cloudy
6:53 AM 37.0 °F 29.8 °F 15.1 °F 41% 30.13 in 10.0 mi SSW 10.4 mph - N/A   Scattered Clouds
7:53 AM 37.9 °F 29.2 °F 16.0 °F 41% 30.12 in 10.0 mi SSW 15.0 mph - N/A   Mostly Cloudy
8:53 AM 39.9 °F 30.8 °F 16.0 °F 38% 30.13 in 10.0 mi SSW 18.4 mph 25.3 mph N/A   Mostly Cloudy
9:53 AM 44.1 °F 35.7 °F 17.1 °F 34% 30.14 in 10.0 mi SSW 20.7 mph - N/A   Mostly Cloudy
10:53 AM 48.0 °F - 18.0 °F 30% 30.14 in 10.0 mi SW 19.6 mph 28.8 mph N/A   Mostly Cloudy
11:53 AM 51.1 °F - 19.0 °F 28% 30.12 in 10.0 mi SSW 15.0 mph - N/A   Mostly Cloudy
12:53 PM 53.1 °F - 19.0 °F 26% 30.10 in 10.0 mi South 17.3 mph 23.0 mph N/A   Mostly Cloudy
1:53 PM 54.0 °F - 19.0 °F 25% 30.08 in 10.0 mi SSW 18.4 mph 21.9 mph N/A   Scattered Clouds
2:53 PM 55.0 °F - 19.9 °F 25% 30.07 in 10.0 mi SW 13.8 mph - N/A   Partly Cloudy
3:53 PM 54.0 °F - 19.9 °F 26% 30.07 in 10.0 mi SSW 10.4 mph - N/A   Partly Cloudy
5:53 PM 42.1 °F 37.1 °F 19.9 °F 41% 30.08 in 10.0 mi South 8.1 mph - N/A   Partly Cloudy
6:53 PM 39.2 °F 33.6 °F 21.2 °F 49% 30.09 in 10.0 mi South 8.1 mph - N/A   Clear
7:53 PM 41.0 °F 37.1 °F 21.9 °F 47% 30.09 in 10.0 mi SSE 5.8 mph - N/A   Clear
8:53 PM 37.0 °F 31.6 °F 21.9 °F 54% 30.11 in 10.0 mi South 6.9 mph - N/A   Clear
9:53 PM 36.0 °F 29.0 °F 21.9 °F 57% 30.11 in 10.0 mi South 9.2 mph - N/A   Clear
10:53 PM 42.1 °F 35.2 °F 24.1 °F 49% 30.10 in 10.0 mi South 12.7 mph - N/A   Clear
11:53 PM 42.8 °F 36.6 °F 23.0 °F 46% 30.10 in 10.0 mi South 11.5 mph - N/A   Clear